EST,Max TemperatureF,Mean TemperatureF,Min TemperatureF,Max Dew PointF,MeanDew PointF,Min DewpointF,Max Humidity, Mean Humidity, Min Humidity, Max Sea Level PressureIn, Mean Sea Level PressureIn, Min Sea Level PressureIn, Max VisibilityMiles, Mean VisibilityMiles, Min VisibilityMiles, Max Wind SpeedMPH, Mean Wind SpeedMPH, Max Gust SpeedMPH,PrecipitationIn, CloudCover, Events, WindDirDegrees
2013-2-1,42,34,26,30,17,7,86,51,30,30.39,30.12,29.86,10,10,10,28,9,36,0.00,1,,261
2013-2-2,39,29,19,25,14,7,93,54,30,30.42,30.27,30.03,10,10,10,10,2,16,0.00,2,,198
2013-2-3,44,37,30,36,30,25,100,73,53,30.03,29.92,29.84,10,10,5,10,5,9,0.00,4,Rain,272
2013-2-4,44,34,24,28,23,19,86,59,37,30.15,30.06,29.96,10,10,10,10,5,17,0.00,0,,217
2013-2-5,57,47,37,37,34,28,87,64,41,30.01,29.94,29.87,10,10,10,12,6,17,0.00,3,,217
2013-2-6,55,44,33,37,35,32,100,75,51,30.34,30.14,29.96,10,10,5,12,3,16,0.00,1,,17
2013-2-7,51,46,41,45,40,36,100,77,58,30.39,30.27,30.10,10,10,10,13,9,18,0.20,3,Rain,63
2013-2-8,53,48,42,46,43,32,100,91,66,30.08,29.80,29.68,10,9,2,21,14,33,1.75,6,Rain,324
2013-2-9,48,39,28,34,26,19,86,61,32,30.38,30.19,29.94,10,10,10,17,8,26,0.00,0,,299
2013-2-10,51,38,24,37,26,16,93,66,27,30.51,30.41,30.31,10,10,10,9,1,,0.00,0,,142
2013-2-11,64,53,42,63,54,36,100,91,71,30.30,30.03,29.85,10,8,3,16,9,24,0.09,6,Rain,190
2013-2-12,60,53,46,57,39,30,88,59,34,30.05,29.97,29.87,10,10,10,15,8,18,0.00,0,,262
2013-2-13,50,48,46,48,46,37,100,94,62,29.96,29.76,29.61,10,7,2,12,3,18,0.16,7,Rain,206
2013-2-14,50,42,33,45,37,34,100,84,62,30.10,29.99,29.76,10,9,3,14,5,20,0.00,2,,305
2013-2-15,60,45,30,43,36,30,100,76,36,30.10,30.02,29.95,10,7,0,12,1,,0.00,1,Fog,186
2013-2-16,44,38,33,39,35,32,100,90,70,29.97,29.87,29.79,10,7,1,13,6,18,0.37,6,Rain-Snow,353
2013-2-17,33,30,26,32,18,9,93,64,40,30.25,30.02,29.82,10,10,10,21,10,30,0.00,2,,286
2013-2-18,46,32,17,27,16,10,93,55,25,30.43,30.35,30.26,10,10,10,10,4,,0.00,0,,233
2013-2-19,57,42,28,54,41,27,94,82,67,30.29,30.02,29.81,10,10,7,16,7,29,0.04,2,Rain,199
2013-2-20,48,39,30,41,25,18,87,55,30,30.14,30.02,29.89,10,10,10,22,8,26,0.00,0,,275
2013-2-21,46,35,24,25,21,18,86,55,37,30.31,30.20,30.13,10,10,10,10,4,16,0.00,0,,341
2013-2-22,46,40,35,43,30,21,100,71,52,30.37,30.29,30.16,10,9,4,15,4,17,0.04,6,Rain,45
2013-2-23,44,43,42,45,44,43,100,100,93,30.16,29.94,29.82,10,6,2,10,3,,0.54,8,Rain,315
2013-2-24,53,46,39,46,43,28,100,91,65,30.07,29.90,29.78,10,7,1,16,4,28,0.01,5,Rain,308
2013-2-25,42,36,30,34,27,23,93,69,53,30.23,30.18,30.09,10,10,10,9,5,21,0.00,0,,11
2013-2-26,64,47,30,64,47,28,100,96,87,30.20,29.92,29.56,10,9,4,23,6,31,1.42,5,Rain-Thunderstorm,85
2013-2-27,60,50,39,61,46,37,100,83,51,29.74,29.68,29.57,10,10,10,15,8,22,0.01,2,,241
2013-2-28,51,44,37,41,33,28,100,68,41,29.79,29.71,29.66,10,10,10,21,5,28,0.00,4,,267